Satellite: HUBBLE
Catalog number: 20580
Epoch time:      06193.51148735
Element set:    0676
Inclination:      028.4684 deg
RA of node:       244.7990 deg
Eccentricity:    0.0003875
Arg of perigee:   098.5786 deg
Mean anomaly:     261.5241 deg
Mean motion:   15.00063945 rev/day
Decay rate:       3.76e-06 rev/day^2
Epoch rev:           68890
Checksum:              330

Satellite: UARS
Catalog number: 21701
Epoch time:      06193.95549012
Element set:    0845
Inclination:      056.9787 deg
RA of node:       341.3513 deg
Eccentricity:    0.0097471
Arg of perigee:   257.9665 deg
Mean anomaly:     101.0453 deg
Mean motion:   15.43940752 rev/day
Decay rate:      2.835e-05 rev/day^2
Epoch rev:           81328
Checksum:              314

Satellite: PO-34
Catalog number: 25520
Epoch time:      06193.68101086
Element set:    0530
Inclination:      028.4587 deg
RA of node:       220.5949 deg
Eccentricity:    0.0005959
Arg of perigee:   153.8394 deg
Mean anomaly:     206.2551 deg
Mean motion:   15.16748337 rev/day
Decay rate:       7.02e-06 rev/day^2
Epoch rev:           42592
Checksum:              311

Satellite: ISS
Catalog number: 25544
Epoch time:      06195.01557917
Element set:     289
Inclination:      051.6318 deg
RA of node:       049.2801 deg
Eccentricity:    0.0010872
Arg of perigee:   074.1247 deg
Mean anomaly:     087.3531 deg
Mean motion:   15.76292860 rev/day
Decay rate:      8.821e-05 rev/day^2
Epoch rev:           43739
Checksum:              312

Satellite: OO-38
Catalog number: 26063
Epoch time:      06193.72895658
Element set:    0667
Inclination:      100.1886 deg
RA of node:       129.3675 deg
Eccentricity:    0.0037245
Arg of perigee:   035.8957 deg
Mean anomaly:     324.4714 deg
Mean motion:   14.35770872 rev/day
Decay rate:       -1.1e-07 rev/day^2
Epoch rev:           33834
Checksum:              335

Satellite: NO-45
Catalog number: 26932
Epoch time:      06194.74133049
Element set:     360
Inclination:      067.0514 deg
RA of node:       298.9902 deg
Eccentricity:    0.0008513
Arg of perigee:   250.9319 deg
Mean anomaly:     109.0860 deg
Mean motion:   14.29528996 rev/day
Decay rate:       -9.9e-07 rev/day^2
Epoch rev:           24976
Checksum:              336

Satellite: UWE-1
Catalog number: 28892
Epoch time:      06193.77095192
Element set:     499
Inclination:      098.1628 deg
RA of node:       091.5733 deg
Eccentricity:    0.0018503
Arg of perigee:   090.2947 deg
Mean anomaly:     270.0384 deg
Mean motion:   14.59372098 rev/day
Decay rate:       1.68e-06 rev/day^2
Epoch rev:            3770
Checksum:              335

Satellite: CO-58
Catalog number: 28895
Epoch time:      06194.37823432
Element set:     483
Inclination:      098.1649 deg
RA of node:       092.2595 deg
Eccentricity:    0.0019107
Arg of perigee:   089.5493 deg
Mean anomaly:     270.7876 deg
Mean motion:   14.59423759 rev/day
Decay rate:        5.0e-08 rev/day^2
Epoch rev:            3767
Checksum:              363

Satellite: NCUBE2
Catalog number: 28897
Epoch time:      06194.21562961
Element set:      92
Inclination:      098.1621 deg
RA of node:       092.0848 deg
Eccentricity:    0.0018255
Arg of perigee:   091.3256 deg
Mean anomaly:     269.0032 deg
Mean motion:   14.59579854 rev/day
Decay rate:       1.23e-06 rev/day^2
Epoch rev:            2992
Checksum:              320

/EX




----
Via the keps mailing list at AMSAT.ORG courtesy of AMSAT-NA.
To unsubscribe, send "unsubscribe keps" to Majordomo@amsat.org

--- ViaMAIL!/WC v1.60d
 * Origin: Chowdanet (401-724-4410) telnet://chowdanet.com  (1:323/120)